This is the latest recevied weather packets stored in our database for station/object N5ZP. If no packets are shown the sender has not sent any weather packets the latest 10 day(s).
| Time | Temp. | Humidity | Pressure | Rain* | Wind** | Luminosity | Snow |
|---|---|---|---|---|---|---|---|
| 1777427049 | 22.22° C | 93% | 1007.1 hPa | 0 mm | - | 0 W/m² | - |
| 1777426746 | 22.22° C | 93% | 1007.4 hPa | 0 mm | - | 0 W/m² | - |
| 1777426443 | 22.22° C | 93% | 1007.2 hPa | 0 mm | - | 0 W/m² | - |
| 1777426140 | 22.22° C | 93% | 1007 hPa | 0 mm | - | 0 W/m² | - |
| 1777425839 | 22.22° C | 93% | 1007.1 hPa | 0 mm | - | 0 W/m² | - |
| 1777425535 | 22.22° C | 93% | 1006.9 hPa | 0 mm | - | 1 W/m² | - |
| 1777425230 | 22.22° C | 93% | 1006.7 hPa | 0 mm | - | 2 W/m² | - |
| 1777424928 | 22.22° C | 92% | 1006.9 hPa | 0 mm | - | 3 W/m² | - |
| 1777424624 | 22.78° C | 92% | 1006.9 hPa | 0 mm | - | 5 W/m² | - |
| 1777424318 | 22.78° C | 91% | 1006.9 hPa | 0 mm | - | 9 W/m² | - |
| 1777424014 | 23.33° C | 90% | 1006.9 hPa | 0 mm | - | 13 W/m² | - |
| 1777423712 | 23.89° C | 90% | 1006.8 hPa | 0 mm | - | 20 W/m² | - |
| 1777423408 | 23.33° C | 90% | 1007 hPa | 0 mm | - | 24 W/m² | - |
| 1777423107 | 23.33° C | 90% | 1006.8 hPa | 0 mm | - | 30 W/m² | - |
| 1777422803 | 23.89° C | 89% | 1006.5 hPa | 0 mm | - | 35 W/m² | - |
| 1777422499 | 23.89° C | 89% | 1006.4 hPa | 0 mm | - | 39 W/m² | - |
| 1777422194 | 23.33° C | 90% | 1006.4 hPa | 0 mm | - | 45 W/m² | - |
| 1777421893 | 23.33° C | 90% | 1006 hPa | 0 mm | - | 54 W/m² | - |
| 1777421589 | 23.89° C | 89% | 1006.1 hPa | 0 mm | - | 53 W/m² | - |
| 1777421284 | 23.89° C | 90% | 1006.4 hPa | 0 mm | - | 68 W/m² | - |
| 1777420981 | 23.89° C | 90% | 1006.4 hPa | 0 mm | - | 87 W/m² | - |
| 1777420677 | 23.89° C | 91% | 1006.5 hPa | 0 mm | - | 110 W/m² | - |
| 1777420374 | 23.89° C | 91% | 1006.4 hPa | 0 mm | - | 137 W/m² | - |
| 1777420069 | 23.33° C | 94% | 1006.8 hPa | 0 mm | - | 156 W/m² | - |
| 1777419767 | 22.78° C | 93% | 1006.6 hPa | 0 mm | - | 156 W/m² | - |
* Rain latest hour (hover to see other rain measurements)
** Current wind speed in m/s (hover to see current wind gust speed)